Location: Unnamed
(48.6007°N, 2.4808°E)
Time: 19:37:11
(UTC+02:00)

DX 1 - Pass Details

Date: 09 April 2023
Orbit: 615 x 625 km, 98.4° (Epoch: 04 June)

Event Time Altitude Azimuth Distance (km) Brightness Sun altitude
Rises 01:30:43 0° 2° (N) 2,900 ? -33.8°
Reaches altitude 10° 01:33:18 10° 347° (NNW) 1,990 ? -33.9°
Enters shadow 01:35:20 19° 321° (NW) 1,495 ? -33.9°
